Flag for U.S.A. Weather past 2 weeks in Monticello, Kentucky, U.S.A.

Now
81 °F

Overcast.


Feels Like: 81 °F
Forecast: 68 / 80 °F
Wind: 9 mph from South

Location: London-Corbin Airport-Magee Field

Current Time: May 25, 2015 at 3:51:54 PM

Latest Report: May 25, 2015 at 2:53 PM


Visibility: 10 mi

Pressure: 30.17 "Hg

Humidity: 45%

Dew point: 58 °F

Location of MonticelloLocation

Historic Weather in Monticello — Graph

°F

Monticello temperature yesterday

Maximum temperature yesterday: 83 °F (at 3:53 PM)
Minimum temperature yesterday: 55 °F (at 6:53 AM)
Average temperature yesterday: 70 °F

Past Weeks' High & Low Weather Summary

 TemperatureHumidityPressure
High86 °F (May 10, 4:53 PM)89% (May 22, 6:53 AM)30.40 "Hg (May 22, 6:53 AM)
Low41 °F (May 22, 6:53 AM)24% (May 24, 3:53 PM)29.86 "Hg (May 21, 1:53 AM)
Average68 °F61%30.15 "Hg
* Reported May 10 1:53 PM — May 25 1:53 PM, Monticello, Weather by CustomWeather, © 2015

Note: Actual official high and low records may vary slightly from our data, if they occured in-between our weather recording intervals... More about our weather records

Advertising

Monticello weather history for previous 24 hours

 ConditionsComfort  
Time TempWeatherWind HumidityBarometerVisibility
1:53 PM
Mon, May 25
79 °FMostly cloudy.9 mph47%30.19 "Hg10 mi
12:53 PM79 °FMostly cloudy.10 mph45%30.19 "Hg10 mi
11:53 AM78 °FPartly sunny.10 mph45%30.19 "Hg10 mi
10:53 AM78 °FSunny.12 mph45%30.19 "Hg10 mi
9:53 AM75 °FSunny.13 mph48%30.19 "Hg10 mi
8:53 AM73 °FSunny.12 mph50%30.19 "Hg10 mi
7:53 AM68 °FSunny.3 mph59%30.17 "Hg10 mi
6:53 AM64 °FClear.3 mph63%30.16 "Hg10 mi
5:53 AM65 °FClear.No wind59%30.15 "Hg10 mi
4:53 AM64 °FPassing clouds.3 mph63%30.14 "Hg10 mi
3:53 AM64 °FPassing clouds.3 mph63%30.14 "Hg10 mi
2:53 AM67 °FClear.No wind57%30.14 "Hg10 mi
1:53 AM66 °FClear.5 mph59%30.16 "Hg10 mi
12:53 AM67 °FClear.No wind55%30.17 "Hg10 mi
11:53 PM
Sun, May 24
67 °FClear.No wind55%30.18 "Hg10 mi
10:53 PM69 °FClear.3 mph49%30.17 "Hg10 mi
9:53 PM72 °FClear.No wind44%30.16 "Hg10 mi
8:53 PM76 °FSunny.3 mph36%30.16 "Hg10 mi
7:53 PM80 °FSunny.8 mph31%30.16 "Hg10 mi
6:53 PM82 °FSunny.8 mph27%30.16 "Hg10 mi
5:53 PM82 °FSunny.7 mph27%30.17 "Hg10 mi
4:53 PM82 °FSunny.9 mph26%30.19 "Hg10 mi
3:53 PM83 °FSunny.13 mph24%30.22 "Hg10 mi
Weather by CustomWeather, © 2015

See weather overviewHow to use our weather pages